TimeEST,TemperatureF,Dew PointF,Humidity,Sea Level PressureIn,VisibilityMPH,Wind Direction,Wind SpeedMPH,Gust SpeedMPH,PrecipitationIn,Events,Conditions,WindDirDegrees,DateUTC
12:02 AM,33.8,32.0,93,29.80,0.8,NW,5.8,-,0.01,Snow,Light Snow,310,2013-02-09 05:02:00
12:10 AM,33.8,32.0,93,29.81,1.0,WNW,10.4,16.1,0.03,Snow,Light Snow,300,2013-02-09 05:10:00
12:35 AM,32.0,30.2,93,29.81,2.0,WNW,12.7,19.6,0.04,Snow,Light Snow,300,2013-02-09 05:35:00
12:40 AM,32.0,30.2,93,29.81,4.0,WNW,10.4,19.6,0.04,Snow,Light Snow,300,2013-02-09 05:40:00
12:54 AM,32.0,28.9,88,29.82,8.0,WNW,11.5,20.7,0.04,Snow,Light Snow,290,2013-02-09 05:54:00
1:54 AM,30.0,24.1,79,29.85,10.0,North,-9999.0,-,0.00,,Unknown,0,2013-02-09 06:54:00
2:54 AM,27.0,19.9,75,29.89,10.0,NW,19.6,32.2,0.00,,Mostly Cloudy,320,2013-02-09 07:54:00
3:54 AM,26.1,19.0,75,29.94,10.0,NW,11.5,23.0,0.00,,Overcast,320,2013-02-09 08:54:00
4:54 AM,25.0,18.0,75,29.96,4.0,WNW,13.8,24.2,0.00,Snow,Light Snow,300,2013-02-09 09:54:00
5:54 AM,24.1,17.1,75,29.99,10.0,WNW,16.1,25.3,0.00,,Overcast,300,2013-02-09 10:54:00
8:54 AM,24.1,15.1,69,30.09,10.0,WNW,15.0,24.2,N/A,,Partly Cloudy,300,2013-02-09 13:54:00
9:54 AM,26.1,16.0,66,30.10,10.0,NW,17.3,31.1,N/A,,Clear,310,2013-02-09 14:54:00
10:54 AM,27.0,16.0,63,30.12,10.0,NW,16.1,31.1,N/A,,Clear,320,2013-02-09 15:54:00
11:54 AM,28.9,17.1,61,30.14,10.0,NW,17.3,21.9,N/A,,Clear,310,2013-02-09 16:54:00
12:54 PM,30.0,17.1,59,30.16,10.0,NW,12.7,28.8,N/A,,Partly Cloudy,320,2013-02-09 17:54:00
1:54 PM,32.0,17.1,54,30.17,10.0,NNW,9.2,27.6,N/A,,Clear,330,2013-02-09 18:54:00
2:54 PM,32.0,16.0,52,30.18,10.0,NW,16.1,27.6,N/A,,Clear,320,2013-02-09 19:54:00
3:54 PM,32.0,15.1,50,30.22,10.0,NW,12.7,24.2,N/A,,Clear,310,2013-02-09 20:54:00
4:54 PM,30.9,14.0,50,30.24,10.0,WNW,17.3,23.0,N/A,,Clear,300,2013-02-09 21:54:00
5:54 PM,28.0,14.0,56,30.27,10.0,WNW,6.9,-,N/A,,Clear,300,2013-02-09 22:54:00
6:54 PM,26.1,12.9,58,30.28,10.0,NW,5.8,-,N/A,,Clear,310,2013-02-09 23:54:00
7:54 PM,26.1,12.0,55,30.32,10.0,WNW,6.9,-,N/A,,Clear,300,2013-02-10 00:54:00
8:54 PM,26.1,12.0,55,30.35,10.0,NW,10.4,-,N/A,,Clear,320,2013-02-10 01:54:00
9:54 PM,25.0,10.9,55,30.35,10.0,NNW,5.8,-,N/A,,Clear,330,2013-02-10 02:54:00
10:54 PM,21.9,10.0,60,30.37,10.0,NW,4.6,-,N/A,,Clear,310,2013-02-10 03:54:00
11:54 PM,21.9,9.0,58,30.40,10.0,NNW,5.8,-,N/A,,Clear,340,2013-02-10 04:54:00